Location: Aulnoy
(48.8410°N, 3.0967°E)
Time: 15:52:20
(UTC+00:00)

Cosmos 2360 Rocket - Pass Details

Date: 09 February 2023
Orbit: 832 x 846 km, 71.0° (Epoch: 25 March)

Event Time Altitude Azimuth Distance (km) Brightness Sun altitude
Rises 18:11:48 0° 224° (SW) 3,380 6.2 -12.5°
Reaches altitude 10° 18:14:19 10° 230° (SW) 2,452 5.5 -13.0°
Maximum altitude 18:19:46 50° 305° (NW) 1,072 3.1 -13.8°
Drops below altitude 10° 18:25:17 10° 21° (NNE) 2,475 4.4 -14.7°
Enters shadow 18:27:48 - 26° (NNE) 3,403 5.0 -15.2°
